Location: ????
(30.1475°N, 31.1342°E)
Time: 03:46:08
(UTC+00:00)

YAOGAN 6 - Pass Details

Date: 27 September 2022
Orbit: 453 x 491 km, 97.1° (Epoch: 01 December)

Event Time Altitude Azimuth Distance (km) Brightness Sun altitude
Rises 03:07:55 0° 344° (NNW) 2,578 6.1 -9.2°
Reaches altitude 10° 03:11:14 10° 310° (NW) 1,687 4.9 -8.4°
Maximum altitude 03:12:30 12° 290° (WNW) 1,588 4.6 -8.2°
Enters shadow 03:13:43 10° 270° (W) 1,673 4.6 -7.9°
